sat.trackr.live / text

‹ back to catalog

IRIDIUM 141

NORAD 43077 · 2017-083H

PAYLOAD ACTIVE UNKNOWN

§ Identity

Operator
Country
US
Launch date
2017-12-23
Launch site
AFWTR
Launch vehicle
Mass (kg)
RCS (m²)

Purposes: comms

External: N2YO · Heavens-Above · Gunter

§ Orbital elements

Epoch: 2026-05-25T00:56:23.208864Z

Period
100.40 min
Inclination
86.3957°
Eccentricity
0.0002231
Mean motion
14.34217730 rev/d
Perigee alt
776.1 km
Apogee alt
779.3 km
Semi-major
7,155.8 km
B*
1.4534e-5
RAAN
331.6728°
Arg perigee
90.1597°
Mean anomaly
269.9854°
Rev number
44,085

§ Raw data

IRIDIUM 1411 43077U 17083H   26145.03915751  .00000060  00000+0  14534-4 0  99952 43077  86.3957 331.6728 0002231  90.1597 269.9854 14.34217730440856

JSON: /api/v1/satellites/43077 · /tle

For live sub-satellite position, see the globe view (requires WebGL).

§ Visibility from observer

Set your observer location to see the next 7 days of passes ≥ 10°. The values pass through the URL so the page stays shareable.

No JS? Fill the form by hand. The geolocation button needs JavaScript.